Temp
2 2 1 1 2 1 1 0 0 -0 -0 -1 -1 -2 -1 -1 -2 -1 -1 -1 -0 0 0 0 0 0 1 1 2 1 1 1 2 1 2 1 1 1 1 1 2 2 3 3 3 4 4
1 1 1 1 1 0 0 0 0 0 -1 -2 -2 -2 -3 -2 -2 -2 -1 -2 -1 -1 -0 -0 -0 -0 0 1 1 1 1 0 1 1 1 1 1 0 -0 1 1 2 3 3 4 4 4
0 1 0 -0 -1 -1 -1 -1 -1 -1 -1 -1 -3 -2 -3 -2 -1 -2 -2 -2 -2 -1 -1 -1 -0 -0 0 0 1 1 1 0 0 1 1 1 0 0 1 0 0 1 2 3 4 4 3
1 0 1 -0 -2 -2 -3 -3 -3 -3 -3 -3 -3 -3 -3 -3 -2 -2 -2 -2 -2 -2 -2 -1 -0 -0 0 -0 1 1 1 1 0 -0 0 0 -0 -0 -0 0 1 1 1 1 2 3 3
-0 -1 -1 -3 -3 -3 -4 -5 -6 -5 -5 -4 -4 -4 -4 -3 -3 -3 -2 -2 -3 -3 -2 -2 -1 -0 -0 0 1 0 1 0 -0 -1 -1 -1 -0 -1 -0 -0 -1 -1 1 -0 0 2 0
-1 -1 -2 -3 -4 -7 -8 -9 -9 -9 -7 -6 -5 -6 -5 -4 -3 -3 -3 -3 -3 -3 -3 -3 -1 -1 -0 0 0 0 0 0 -0 -1 -1 -1 -1 -2 0 -2 1 1 -1 -1 -0 -0 1
-2 -2 -3 -3 -4 -5 -6 -9 -9 -9 -9 -9 -8 -8 -6 -5 -4 -4 -3 -3 -3 -3 -3 -2 -0 -1 -0 0 -0 -0 -0 0 -1 -2 -2 -1 -2 -0 -0 -1 -2 -1 -2 -1 -1 -1 -1
-2 -3 -4 -4 -5 -6 -8 -9 -9 -9 -9 -9 -10 -9 -9 -7 -4 -5 -3 -3 -2 -2 -2 -2 -2 -1 -1 -1 -1 -1 -1 -1 -1 -1 -3 -2 -1 -0 -1 -2 -2 -3 -2 -1 -2 -2 -2
-3 -3 -4 -5 -6 -8 -9 -10 -10 -10 -10 -10 -10 -9 -9 -8 -5 -4 -4 -4 -2 -3 -3 -2 -2 -2 -2 -1 -1 -1 -1 -1 -1 -2 -1 -2 -1 -0 -1 -2 -3 -3 -3 -2 -2 -3 -3
-3 -4 -5 -6 -8 -10 -10 -10 -10 -10 -10 -9 -10 -9 -9 -9 -6 -5 -5 -4 -3 -3 -3 -3 -2 -2 -2 -2 -2 -2 -2 -2 -2 -2 -2 -3 -3 -2 -2 -3 -3 -3 -3 -3 -3 -3 -3
-3 -4 -6 -8 -10 -10 -10 -10 -10 -10 -10 -9 -9 -9 -8 -8 -8 -7 -5 -4 -4 -4 -2 -3 -3 -2 -2 -2 -2 -2 -2 -2 -3 -2 -1 -2 -2 -2 -3 -1 -3 -4 -4 -4 -4 -4 -4
-3 -5 -7 -10 -10 -10 -10 -10 -10 -10 -8 -9 -9 -9 -8 -8 -8 -7 -5 -5 -4 -5 -2 -4 -5 -4 -2 -3 -2 -2 -3 -3 -4 -3 -3 -4 -3 -4 -3 -3 -4 -4 -5 -5 -5 -4 -3
-4 -5 -10 -10 -10 -10 -10 -10 -10 -9 -8 -9 -9 -8 -7 -8 -8 -8 -6 -5 -5 -4 -3 -4 -5 -5 -4 -5 -5 -3 -3 -5 -4 -5 -5 -4 -5 -3 -4 -5 -5 -5 -5 -2 -3 -3 -0
-4 -8 -10 -10 -11 -10 -10 -10 -10 -8 -8 -9 -8 -7 -7 -8 -8 -7 -5 -5 -4 -4 -5 -5 -5 -5 -5 -5 -5 -5 -5 -5 -5 -4 -4 -4 -3 -4 -3 -3 -4 -5 -4 -2 -1 1 2
-5 -8 -10 -10 -11 -10 -10 -10 -10 -8 -8 -9 -8 -8 -8 -8 -8 -7 -6 -5 -4 -3 -1 -4 -5 -5 -5 -5 -5 -4 -5 -5 -4 -5 -4 -4 -5 -3 -3 -3 -4 -5 -4 -4 -4 -3 -2
-5 -8 -10 -11 -11 -11 -11 -11 -9 -8 -8 -8 -8 -8 -8 -8 -8 -7 -6 -4 -4 -2 -1 -2 -5 -5 -5 -5 -4 -5 -4 -3 -4 -4 -4 -4 -5 -4 -3 -4 -4 -4 -4 -4 -5 -3 -1
-5 -9 -11 -11 -11 -11 -11 -10 -9 -8 -8 -9 -8 -8 -7 -7 -7 -6 -5 -4 -3 -3 -2 -2 -2 -4 -5 -5 -4 -4 -4 -2 -3 -2 -4 -5 -5 -5 -4 -4 -4 -5 -5 -5 -4 -4 -2
-5 -8 -11 -11 -11 -11 -11 -9 -8 -8 -7 -8 -8 -7 -7 -8 -6 -6 -5 -4 -3 -3 -3 -2 -2 -2 -3 -2 -3 -4 -3 -2 -2 -3 -4 -4 -5 -5 -5 -4 -4 -4 -4 -5 -4 -3 -4
-5 -8 -11 -11 -11 -11 -9 -7 -7 -7 -9 -7 -7 -7 -7 -6 -6 -6 -5 -4 -3 -3 -3 -2 -3 -2 -2 -2 -3 -4 -3 -3 -3 -3 -3 -4 -5 -5 -3 -3 -4 -5 -2 -4 -5 -5 -4
-5 -7 -10 -11 -11 -10 -9 -6 -7 -8 -7 -7 -7 -6 -6 -6 -5 -5 -5 -5 -3 -3 -2 -2 -2 -2 -2 -3 -3 -3 -3 -3 -3 -3 -4 -4 -5 -4 -2 -1 -2 -4 -4 -4 -5 -5 -3
-5 -6 -9 -10 -10 -9 -9 -8 -7 -8 -7 -6 -6 -6 -6 -6 -6 -5 -5 -4 -4 -3 -3 -3 -3 -2 -2 -3 -4 -3 -3 -3 -3 -3 -3 -5 -5 -4 -3 -3 -4 -3 -4 -4 -4 -4 -4
-5 -6 -8 -10 -10 -9 -8 -8 -7 -7 -6 -6 -6 -6 -6 -6 -6 -5 -4 -4 -4 -3 -3 -3 -3 -3 -3 -3 -3 -3 -3 -3 -3 -3 -4 -4 -4 -4 -4 -3 -3 -3 -3 -3 -4 -4 -5
-5 -6 -7 -10 -9 -8 -7 -6 -7 -6 -6 -6 -6 -6 -5 -5 -5 -5 -3 -3 -3 -3 -3 -3 -3 -3 -4 -3 -3 -3 -3 -3 -3 -3 -3 -4 -4 -4 -3 -3 -3 -3 -2 -2 -2 -2 -3
-4 -6 -7 -8 -9 -8 -7 -6 -6 -6 -5 -5 -5 -5 -5 -5 -4 -4 -3 -3 -3 -4 -4 -4 -3 -3 -3 -3 -3 -3 -3 -3 -3 -3 -3 -3 -4 -4 -3 -3 -1 -1 -2 -2 -2 -2 -3
-4 -6 -6 -7 -8 -7 -7 -6 -6 -5 -5 -5 -5 -5 -5 -5 -4 -4 -3 -4 -4 -3 -4 -3 -3 -4 -4 -3 -3 -3 -3 -2 -2 -2 -3 -3 -3 -3 -3 -3 -1 -1 -1 -1 -2 -2 -1
-4 -5 -6 -6 -7 -7 -6 -5 -5 -5 -5 -5 -5 -5 -5 -4 -3 -3 -4 -3 -4 -4 -4 -3 -4 -4 -4 -4 -4 -4 -2 -2 -2 -2 -2 -3 -3 -3 -3 -3 -1 0 -0 -1 -1 -0 -0
-4 -5 -5 -6 -6 -6 -6 -4 -5 -5 -5 -6 -5 -4 -4 -4 -4 -3 -3 -3 -3 -3 -3 -3 -3 -3 -4 -3 -4 -4 -3 -2 -2 -2 -1 -3 -4 -3 -4 -3 -1 0 1 0 0 -1 0
-4 -4 -5 -6 -5 -6 -5 -5 -4 -5 -5 -5 -5 -4 -4 -2 -2 -3 -3 -3 -3 -3 -4 -3 -3 -3 -4 -4 -4 -4 -3 -2 -2 -2 -1 -1 -2 -3 -3 -3 -1 1 1 1 1 1 1
-5 -5 -5 -5 -6 -5 -6 -5 -5 -5 -5 -5 -5 -4 -4 -4 -3 -3 -3 -3 -4 -4 -4 -4 -4 -3 -4 -3 -4 -4 -3 -3 -3 -2 -1 -2 -1 -1 -0 1 1 1 1 1 2 2 2
Height
3089 3084 3080 3075 3071 3066 3061 3058 3055 3052 3049 3048 3047 3048 3049 3050 3050 3052 3052 3054 3055 3056 3058 3060 3061 3062 3064 3066 3070 3070 3070 3072 3075 3078 3081 3085 3087 3089 3091 3092 3094 3095 3096 3096 3097 3098 3100
3087 3081 3075 3070 3065 3059 3055 3050 3047 3042 3041 3039 3039 3040 3040 3040 3042 3045 3046 3047 3049 3051 3053 3055 3056 3058 3060 3063 3065 3069 3069 3070 3072 3076 3078 3081 3084 3086 3087 3088 3090 3090 3090 3091 3092 3093 3092
3081 3077 3071 3065 3058 3053 3048 3042 3037 3034 3031 3029 3027 3028 3029 3031 3034 3037 3039 3041 3044 3045 3047 3050 3052 3054 3055 3058 3060 3063 3067 3069 3070 3073 3075 3077 3080 3082 3085 3085 3084 3086 3087 3086 3088 3089 3086
3076 3070 3064 3057 3051 3045 3039 3034 3029 3023 3020 3018 3016 3016 3018 3020 3026 3027 3032 3036 3037 3040 3041 3044 3046 3049 3051 3052 3055 3059 3062 3065 3067 3069 3072 3074 3076 3078 3080 3081 3082 3083 3083 3083 3082 3083 3082
3069 3061 3053 3047 3042 3036 3028 3022 3018 3015 3011 3008 3005 3005 3007 3009 3016 3020 3023 3030 3031 3033 3036 3039 3042 3044 3046 3048 3050 3054 3058 3061 3062 3064 3067 3070 3072 3073 3077 3079 3080 3079 3080 3080 3081 3079 3079
3065 3056 3048 3041 3033 3025 3020 3015 3010 3005 3002 2998 2995 2994 2995 2999 3005 3011 3016 3023 3024 3027 3030 3032 3036 3042 3041 3042 3046 3050 3054 3057 3059 3061 3064 3066 3067 3069 3073 3074 3076 3076 3076 3077 3077 3077 3073
3059 3052 3044 3036 3029 3022 3014 3007 3002 2997 2992 2988 2984 2984 2985 2988 2994 3001 3007 3011 3013 3018 3021 3027 3032 3033 3035 3038 3042 3045 3049 3053 3056 3058 3060 3062 3063 3063 3067 3069 3071 3072 3073 3073 3073 3071 3067
3054 3046 3038 3030 3023 3015 3007 3000 2995 2990 2985 2980 2978 2978 2978 2978 2983 2989 2994 2994 3005 3018 3020 3023 3026 3030 3032 3035 3039 3042 3046 3049 3051 3053 3056 3059 3056 3061 3062 3064 3065 3067 3068 3068 3067 3067 3064
3048 3040 3031 3023 3015 3006 2999 2993 2988 2982 2977 2974 2973 2971 2971 2971 2973 2981 2984 2990 3001 3010 3016 3018 3022 3025 3030 3034 3036 3039 3043 3044 3048 3049 3052 3054 3055 3056 3058 3060 3061 3062 3063 3064 3064 3063 3060
3042 3033 3024 3014 3005 2997 2991 2986 2981 2976 2971 2968 2967 2966 2966 2966 2969 2972 2979 2985 2995 3004 3011 3013 3015 3019 3023 3028 3033 3035 3038 3042 3043 3046 3049 3050 3051 3052 3055 3056 3058 3059 3059 3058 3058 3060 3057
3035 3024 3014 3004 2997 2990 2985 2980 2974 2970 2966 2964 2961 2959 2961 2961 2960 2965 2977 2981 2990 2995 3002 3005 3006 3009 3015 3023 3026 3028 3033 3036 3038 3042 3046 3047 3047 3048 3049 3051 3053 3055 3053 3055 3055 3055 3053
3029 3016 3004 2997 2991 2985 2979 2974 2969 2965 2962 2960 2957 2954 2954 2954 2955 2963 2969 2976 2986 2992 2991 2995 2998 3003 3010 3015 3020 3024 3028 3032 3035 3038 3039 3042 3043 3044 3046 3048 3050 3051 3052 3053 3052 3052 3044
3022 3008 2999 2992 2986 2979 2974 2969 2965 2960 2959 2956 2951 2946 2944 2947 2952 2959 2968 2972 2981 2982 2987 2991 2993 2999 3005 3010 3016 3020 3024 3027 3031 3035 3035 3038 3038 3040 3042 3045 3046 3048 3050 3050 3048 3044 3030
3015 3004 2996 2988 2981 2974 2969 2965 2960 2957 2956 2952 2946 2940 2940 2944 2949 2956 2965 2973 2978 2979 2983 2987 2992 2999 3006 3009 3015 3017 3021 3024 3027 3029 3033 3036 3037 3035 3035 3037 3041 3040 3044 3043 3034 3025 3023
3012 3001 2992 2985 2978 2971 2966 2961 2956 2954 2953 2948 2944 2940 2941 2943 2948 2955 2962 2969 2972 2977 2979 2983 2994 2999 3002 3007 3011 3015 3018 3021 3023 3026 3032 3032 3032 3031 3033 3034 3037 3034 3034 3036 3035 3028 3026
3009 2998 2990 2982 2976 2969 2964 2958 2953 2952 2950 2946 2941 2939 2941 2944 2947 2954 2963 2968 2972 2975 2979 2985 2990 2995 2998 3003 3008 3011 3015 3017 3020 3022 3027 3028 3030 3028 3028 3029 3028 3028 3031 3032 3031 3021 3009
3006 2995 2988 2981 2974 2968 2961 2956 2953 2951 2949 2944 2940 2939 2941 2944 2950 2959 2965 2967 2971 2976 2982 2986 2988 2991 2996 2999 3005 3009 3014 3016 3017 3019 3023 3025 3028 3026 3024 3019 3019 3023 3021 3022 3021 3013 3003
3004 2993 2986 2979 2972 2966 2960 2955 2953 2951 2949 2945 2939 2939 2943 2947 2957 2958 2965 2968 2972 2976 2982 2986 2990 2993 2996 2999 3003 3008 3011 3013 3015 3017 3019 3021 3022 3018 3014 3014 3014 3017 3014 3014 3010 3001 2996
3003 2991 2984 2978 2971 2964 2959 2957 2954 2950 2947 2943 2940 2942 2945 2949 2955 2959 2965 2968 2974 2979 2984 2987 2991 2994 2997 3000 3005 3007 3009 3011 3013 3015 3016 3017 3016 3014 3008 3010 3008 3005 3002 2999 2994 2996 2987
3002 2990 2982 2976 2970 2963 2958 2957 2955 2951 2946 2943 2943 2946 2951 2955 2959 2964 2969 2972 2977 2982 2986 2989 2992 2995 2998 3001 3003 3005 3007 3009 3010 3012 3012 3013 3011 3008 3006 3002 3004 2999 2993 2989 2989 2986 2978
3001 2989 2980 2974 2968 2963 2959 2957 2955 2952 2948 2946 2945 2949 2949 2953 2960 2967 2973 2976 2979 2983 2987 2990 2992 2994 2997 3000 3001 3003 3005 3006 3008 3008 3009 3009 3003 3003 2998 2995 2993 2985 2980 2978 2977 2970 2974
3000 2989 2979 2973 2967 2964 2960 2958 2957 2954 2953 2951 2950 2952 2956 2959 2964 2969 2974 2977 2982 2985 2987 2989 2992 2994 2996 2998 3000 3001 3002 3003 3004 3005 3005 3003 2999 2997 2989 2987 2982 2973 2970 2965 2964 2961 2958
3000 2988 2979 2972 2966 2964 2962 2960 2959 2957 2957 2955 2956 2957 2959 2962 2967 2971 2975 2979 2982 2984 2987 2989 2991 2992 2995 2997 2998 2998 2999 3000 3001 3001 3001 3001 2999 2996 2984 2983 2977 2970 2964 2959 2957 2952 2952
2999 2989 2979 2972 2967 2964 2963 2964 2961 2959 2960 2958 2958 2960 2962 2965 2969 2973 2976 2981 2981 2983 2987 2989 2990 2992 2996 2996 2996 2996 2996 2995 2995 2996 2996 2995 2996 2995 2984 2981 2974 2968 2962 2958 2955 2950 2945
2998 2988 2980 2972 2967 2965 2963 2964 2963 2962 2962 2963 2962 2963 2964 2967 2970 2973 2978 2981 2982 2985 2987 2988 2990 2992 2993 2994 2994 2993 2993 2992 2990 2990 2991 2991 2993 2991 2988 2982 2974 2966 2962 2958 2955 2953 2947
2997 2988 2980 2974 2967 2965 2964 2964 2964 2964 2964 2964 2965 2965 2965 2969 2972 2975 2977 2979 2981 2985 2987 2988 2990 2990 2992 2993 2993 2993 2991 2989 2989 2989 2988 2988 2989 2990 2988 2986 2977 2969 2965 2961 2957 2955 2949
2997 2988 2980 2975 2968 2964 2963 2964 2964 2964 2964 2965 2966 2965 2967 2968 2971 2972 2976 2979 2981 2984 2986 2986 2987 2988 2989 2991 2991 2990 2989 2988 2987 2987 2985 2986 2986 2986 2986 2985 2975 2970 2966 2961 2961 2963 2954
2996 2988 2981 2974 2970 2962 2961 2960 2962 2963 2963 2964 2966 2966 2967 2968 2971 2973 2976 2978 2981 2983 2985 2986 2987 2986 2987 2989 2988 2986 2986 2985 2984 2983 2983 2984 2984 2982 2982 2981 2975 2970 2968 2966 2965 2962 2959
2994 2987 2980 2974 2967 2964 2956 2959 2959 2959 2961 2962 2964 2965 2967 2969 2970 2972 2974 2976 2978 2981 2983 2983 2985 2984 2985 2985 2985 2984 2983 2983 2982 2981 2979 2981 2980 2980 2978 2974 2971 2970 2968 2966 2964 2962 2962
Wind_Speed
28 30 31 31 33 35 36 35 30 30 32 29 29 25 23 23 23 22 27 26 23 21 20 19 18 17 17 19 21 11 14 19 20 23 19 16 17 19 18 19 22 22 24 26 28 29 30
31 33 35 36 38 38 38 38 36 36 29 31 29 33 34 30 27 23 26 27 24 23 21 20 19 18 18 18 17 20 11 10 16 22 20 18 18 17 20 22 22 20 21 23 27 28 30
35 36 38 40 41 42 41 41 39 37 35 32 32 31 36 38 31 26 27 28 23 24 22 21 21 20 18 17 16 19 21 21 16 16 17 18 16 17 16 16 19 19 21 23 25 26 30
39 42 44 46 45 43 42 39 37 37 35 32 35 32 34 40 40 29 28 24 25 24 23 23 23 21 20 19 16 18 18 19 20 21 20 18 18 19 18 18 16 15 18 15 18 21 23
45 49 51 49 48 47 46 45 39 34 35 34 35 31 31 33 40 34 29 27 27 24 25 24 23 21 21 20 18 17 18 19 16 16 18 19 19 22 20 17 13 15 12 13 14 16 16
47 49 52 53 52 42 39 37 35 37 34 32 32 31 27 31 36 36 30 25 28 24 25 25 21 17 18 20 21 20 18 18 18 18 17 18 19 18 18 16 9 9 12 13 13 10 20
48 51 52 52 50 49 48 39 36 40 39 33 28 22 21 28 36 40 30 35 34 30 32 26 11 24 8 21 14 23 20 19 19 19 19 19 19 21 17 17 16 14 12 14 16 18 26
50 51 52 51 50 47 43 35 37 39 36 27 16 11 16 22 33 34 33 45 36 20 19 23 23 12 20 11 18 18 16 21 23 21 20 19 21 16 17 17 19 18 20 21 20 18 21
51 53 52 51 47 42 36 37 38 34 32 24 19 19 19 22 32 40 30 40 37 29 18 19 21 25 20 17 16 15 17 18 17 21 18 17 12 8 13 17 17 20 21 19 21 21 25
51 52 52 49 45 35 37 36 36 32 28 18 18 14 19 15 27 32 51 34 40 26 13 16 25 23 28 26 21 19 19 18 19 16 16 15 21 23 22 20 18 20 19 20 19 16 10
54 55 54 43 33 35 35 35 33 30 24 22 14 20 18 18 20 20 41 17 35 26 7 13 24 25 26 27 16 27 25 23 21 20 18 11 10 11 17 17 13 14 16 13 12 15 18
57 57 49 33 33 35 34 33 30 28 19 20 25 25 16 18 20 18 34 21 35 14 6 16 24 23 26 31 26 16 27 28 25 24 25 20 21 17 15 12 13 14 11 13 13 12 11
59 59 37 35 35 35 33 29 27 20 19 22 28 34 19 17 15 25 24 36 24 7 11 16 23 23 23 28 24 23 21 22 14 11 14 13 21 23 21 16 16 16 10 3 6 8 8
60 49 39 36 35 34 29 27 26 15 15 25 31 17 8 12 15 31 31 41 10 11 13 13 21 21 15 20 17 17 19 20 18 14 5 6 5 14 13 17 7 19 18 9 6 8 11
57 48 36 36 32 29 28 30 23 14 17 26 32 6 4 13 15 30 29 29 10 25 21 21 24 22 18 21 17 18 18 20 18 22 10 7 6 9 5 7 14 11 23 19 25 32 20
55 45 35 34 30 29 30 28 19 13 18 27 32 3 8 12 19 24 39 15 10 25 22 21 14 11 14 24 15 19 16 8 14 17 15 8 6 10 18 17 21 22 9 9 16 6 15
54 43 36 31 31 30 30 25 14 13 19 30 23 1 8 14 19 32 25 14 20 18 22 14 12 14 12 24 14 18 9 5 10 8 19 15 12 7 15 18 19 20 29 24 19 18 9
53 43 33 32 31 30 27 18 12 16 21 27 26 4 7 18 20 31 18 24 21 20 18 11 9 9 13 14 16 11 12 10 9 12 15 17 10 15 24 18 17 21 24 26 23 18 17
52 46 33 31 30 26 22 15 14 18 24 28 15 16 18 19 9 22 23 23 23 20 17 13 10 8 11 12 6 9 6 11 12 11 5 12 11 6 8 4 11 20 25 36 39 33 32
51 47 35 30 28 24 20 13 15 22 23 10 10 12 13 9 16 20 26 21 20 14 12 9 8 8 7 7 8 6 5 5 7 11 14 12 14 19 16 25 21 23 30 30 38 32 35
50 48 39 31 27 21 18 12 13 20 10 14 13 14 11 14 21 24 23 19 17 15 12 10 8 8 3 7 8 11 11 10 10 9 14 15 23 27 36 37 36 41 44 42 36 45 31
49 47 40 31 25 19 16 9 8 14 7 12 15 10 7 15 30 25 22 17 15 13 7 12 9 3 10 7 6 5 7 10 9 11 20 24 25 26 36 34 26 36 42 35 33 41 47
48 47 42 31 25 16 12 7 6 5 1 9 14 11 15 15 24 26 24 17 12 12 6 8 11 8 4 8 9 10 13 11 13 14 14 18 22 15 20 22 39 16 22 18 19 22 22
46 46 44 34 26 17 10 2 4 3 2 8 9 7 10 19 15 23 23 16 11 13 8 5 6 8 5 4 5 7 11 15 17 17 22 25 22 21 24 24 4 16 21 14 11 13 12
43 45 45 38 27 16 11 6 2 0 2 2 2 5 6 18 19 21 17 14 9 12 12 6 5 6 7 7 8 7 6 6 5 9 19 24 28 15 6 11 18 11 24 14 10 11 24
41 43 43 41 30 17 7 3 4 3 6 2 3 10 9 12 19 19 16 9 15 14 12 11 8 12 11 6 8 4 3 3 1 4 5 7 14 23 7 5 4 14 21 17 10 10 17
38 40 42 42 33 21 9 3 7 6 10 12 4 6 8 13 5 14 19 17 13 12 7 6 6 7 10 11 10 8 6 7 3 3 4 2 9 16 12 8 12 12 15 13 12 15 15
35 37 39 40 36 25 12 7 10 13 15 12 12 6 10 9 8 11 15 15 14 10 9 8 5 6 8 11 7 7 7 7 10 13 8 5 5 6 5 6 5 13 10 13 14 13 5
33 34 36 38 38 27 20 8 13 14 19 17 18 16 14 12 6 16 13 12 14 12 9 9 11 6 3 4 5 4 9 7 8 5 8 8 9 4 6 7 13 10 8 10 13 7 4
Wind_Direction
336 334 332 328 326 327 325 321 311 297 293 284 274 244 251 252 250 246 255 257 248 245 244 240 234 228 225 226 231 237 205 207 201 210 221 223 227 228 228 232 240 241 244 247 251 253 253
339 335 331 329 329 328 327 324 318 311 296 284 273 250 246 239 237 244 247 251 252 240 239 237 231 226 222 222 229 210 183 170 193 207 216 225 226 234 245 245 242 243 247 250 254 257 260
338 336 334 332 333 332 331 327 322 316 307 291 276 262 244 242 238 231 241 247 251 241 233 233 230 226 223 218 221 221 218 213 187 184 205 216 224 236 239 244 247 247 254 257 255 260 265
338 338 336 336 338 335 331 326 321 315 309 297 284 273 254 241 233 240 228 235 243 245 235 232 229 227 226 223 217 224 222 217 215 214 215 225 221 235 235 241 256 262 264 266 265 263 267
342 342 339 338 336 337 333 329 325 316 308 298 289 278 257 247 230 232 225 217 240 245 239 234 226 227 228 222 214 216 219 216 210 209 208 208 217 227 237 246 258 255 248 252 268 266 260
342 341 339 339 338 332 329 324 319 321 318 302 280 280 255 242 227 231 220 209 225 227 235 230 222 221 226 220 215 214 216 214 211 212 213 216 223 231 235 224 231 246 240 251 248 267 273
340 340 339 337 334 330 323 321 318 319 324 315 294 286 258 236 225 224 219 220 198 220 227 225 223 218 217 210 192 211 214 215 214 216 218 224 228 235 240 236 238 249 253 259 265 273 286
340 339 337 334 331 325 321 319 316 319 318 311 291 266 258 241 224 218 203 207 220 238 232 228 221 212 210 188 203 211 203 211 217 217 215 229 238 246 243 240 246 251 261 267 279 275 280
339 338 334 331 326 323 318 316 319 318 317 309 292 278 254 248 224 201 196 212 215 217 231 224 220 221 217 211 214 213 211 208 209 217 225 227 246 248 240 244 241 248 255 265 272 282 283
339 336 334 329 325 318 316 319 321 323 322 300 296 283 258 284 231 221 219 198 212 195 214 227 217 220 219 221 227 217 212 214 216 216 229 251 251 250 249 250 249 260 255 260 269 277 277
340 337 335 334 325 322 324 323 324 326 317 297 281 323 261 261 245 219 216 191 206 173 195 209 202 206 207 205 212 216 215 218 224 229 230 239 248 243 237 256 243 243 270 267 261 257 276
339 340 342 335 330 328 328 325 327 327 310 311 320 323 276 238 240 202 204 211 197 168 193 175 186 193 191 200 205 197 210 222 234 239 242 238 244 250 253 257 254 265 259 265 264 254 251
343 344 342 338 335 332 329 329 328 327 310 323 325 323 259 230 226 189 187 188 167 209 165 177 177 181 185 186 198 206 199 200 201 194 230 246 247 252 256 252 245 226 246 269 237 207 247
347 345 336 338 338 333 335 334 334 323 311 329 351 333 213 216 189 177 179 184 179 173 155 167 164 164 169 182 187 197 204 208 210 209 178 224 242 207 254 236 219 215 213 213 258 247 298
348 346 340 343 342 338 339 337 338 317 307 329 342 333 184 179 187 191 195 174 174 178 175 155 149 155 164 180 175 191 192 207 220 219 205 198 249 218 222 228 210 223 218 245 258 265 266
350 349 345 347 346 341 339 340 339 325 318 326 344 175 153 177 187 196 180 177 159 171 176 158 148 170 168 175 169 179 191 217 222 226 219 242 257 258 246 237 228 228 232 214 212 253 250
351 351 348 349 346 345 345 342 338 323 329 328 11 135 147 184 171 183 170 159 150 163 170 143 146 156 171 172 173 178 185 190 198 190 207 226 232 249 232 233 232 224 231 235 242 235 252
353 351 346 348 343 346 353 356 345 348 333 338 355 41 147 162 157 177 164 142 141 139 167 158 139 143 149 167 185 188 205 209 199 201 199 223 251 246 256 272 262 242 252 240 236 237 234
354 351 349 346 347 347 356 2 359 349 353 335 355 114 111 153 188 161 179 141 149 145 144 145 149 159 159 160 169 201 207 211 214 210 234 213 226 277 301 281 252 240 264 248 242 247 250
356 353 349 349 350 348 350 346 349 358 348 14 84 123 136 157 185 176 179 152 160 173 196 193 164 161 155 173 199 188 205 214 213 214 228 239 241 244 258 277 285 275 277 266 243 241 253
357 355 352 351 347 354 1 5 19 8 16 36 72 112 135 169 169 176 177 175 173 172 178 186 203 220 211 186 215 220 224 239 241 226 231 234 260 275 287 287 291 292 289 286 256 254 241
357 357 354 353 350 359 8 5 34 3 49 60 95 113 114 147 162 163 179 191 190 209 221 226 223 218 214 212 222 244 233 231 241 241 246 259 272 285 285 307 305 294 302 294 278 269 254
356 1 358 358 352 2 17 337 6 358 281 83 87 103 138 144 172 185 195 197 204 225 217 204 218 233 220 222 257 243 244 256 263 266 265 254 270 284 288 308 311 296 337 319 311 293 274
357 2 1 1 356 1 21 359 327 336 54 71 64 104 105 168 178 190 196 201 220 198 186 174 217 177 204 239 284 268 272 264 262 255 264 267 271 278 287 320 288 337 359 343 326 345 307
358 2 4 3 358 356 11 2 297 261 77 21 282 124 160 187 185 190 193 195 161 177 202 217 190 223 216 257 300 311 274 277 298 271 248 255 261 266 277 302 289 335 1 359 8 10 3
358 1 4 4 1 353 0 325 266 228 167 98 120 167 170 180 203 205 191 198 224 231 234 241 233 238 232 253 270 260 261 285 323 302 264 246 235 246 281 304 301 343 351 347 356 23 15
357 1 1 3 2 354 338 236 245 228 184 174 146 148 186 181 161 198 205 220 217 213 229 230 250 237 233 235 239 246 255 256 281 244 247 254 223 231 242 258 274 345 359 6 23 345 30
355 359 359 358 1 351 332 279 231 226 194 191 205 186 169 170 216 195 199 214 220 226 267 262 286 253 227 222 236 249 246 242 257 255 258 242 214 215 203 236 295 347 8 14 6 18 61
350 355 356 355 353 354 330 271 237 224 203 188 175 198 215 213 213 203 226 202 192 213 233 235 237 242 247 239 261 257 256 253 261 269 268 239 213 236 233 274 304 313 337 359 14 29 122